Regional Weather Roundup
Issued by NWS Sioux Falls, SD

Home | Current Version | Previous Version | Text Only | Print | Product List | Glossary On
Versions: 1 2 3 4 5 6 7 8 9 10 11 12 13 14 15 16 17 18 19 20 21 22 23 24 25 26 27 28 29 30 31 32 33 34 35 36 37 38 39 40 41 42 43 44 45 46 47 48 49 50
000
ASUS43 KFSD 301002
RWRFSD

WEATHER ROUNDUP FOR SE SOUTH DAKOTA/SW MINNESOTA/NW IOWA
NATIONAL WEATHER SERVICE SIOUX FALLS SD
500 AM CDT MON MAR 30 2015

NOTE: "FAIR" INDICATES FEW OR NO CLOUDS BELOW 12,000 FEET WITH NO
SIGNIFICANT WEATHER AND OR OBSTRUCTIONS TO VISIBILITY.


SDZ038>040-050-052>070-301100-
SOUTHEAST SOUTH DAKOTA

CITY           SKY/WX    TMP DP  RH WIND       PRES   REMARKS
CHAMBERLAIN    NOT AVBL
HURON          PTCLDY    36  24  62 S6        29.96F
MADISON        FAIR      39  19  45 SW7       29.98F
MITCHELL       PTCLDY    40  24  53 S7        29.99F
SIOUX FALLS    MOCLDY    33  23  66 CALM      30.01S
WINNER         FAIR      48  19  31 S15       29.97F
YANKTON        MOCLDY    45  21  39 S7        30.03S
$$

MNZ071-072-080-081-089-090-097-098-301100-
SOUTHWEST MINNESOTA

CITY           SKY/WX    TMP DP  RH WIND       PRES   REMARKS
FAIRMONT       PTCLDY    37  23  56 SW12      29.99S
JACKSON        PTCLDY    36  23  60 SW9       30.01S
LUVERNE        PTCLDY    30  23  74 S3        30.02S
MARSHALL       PTCLDY    43  21  42 SW16      29.97S
MONTEVIDEO     PTCLDY    37  27  65 W5        29.97R
PIPESTONE      PTCLDY    34  21  60 SW3       29.99F
REDWOOD FALLS  PTCLDY    39  24  55 SW12      29.96R
TRACY          PTCLDY    40  24  51 SW13      29.98R
WINDOM         PTCLDY    36  23  60 SW6       29.99F
WORTHINGTON    PTCLDY    37  19  48 SW10      30.02S
$$

IAZ001>003-012>014-020>022-031-032-NEZ013-014-SDZ071-301100-
NORTHWEST IOWA

CITY           SKY/WX    TMP DP  RH WIND       PRES   REMARKS
DENISON        PTCLDY    30  27  86 W3        30.08R
ESTHERVILLE    PTCLDY    35  24  64 SW14      30.01S WCI  26
SIOUX CITY     PTCLDY    32  23  69 E7        30.06F WCI  26
SPENCER        PTCLDY    33  24  69 SW5       30.04S WCI  29
$$

ABBREVIATIONS USED IN REMARKS
   TC - TEMPERATURE IN CELSIUS
  WCI - WIND CHILL INDEX
   HX - HEAT INDEX
  VSB - VISIBILITY



USA.gov is the U.S. government's official web portal to all federal, state and local government web resources and services.